Location: Recife
(8.0585°S, 34.8848°W)
Time: 21:05:57
(UTC-03:00)

Explorer 11/Cluster Stage 4 - Pass Details

Date: 15 April 2026
Orbit: 463 x 1174 km, 28.8° (Epoch: 16 May)

Event Time Altitude Azimuth Distance (km) Brightness Sun altitude
Rises 21:29:18 0° 267° (W) 3,018 - -62.7°
Reaches altitude 10° 21:32:38 10° 246° (WSW) 1,959 - -63.6°
Maximum altitude 21:35:27 16° 206° (SSW) 1,491 - -64.2°
Drops below altitude 10° 21:38:02 10° 166° (SSE) 1,761 - -64.9°
Sets 21:40:49 0° 143° (SE) 2,568 - -65.6°
